AHDZ999 LOWW-LOWI

Flight info

Callsign AHDZ999
Flight time 1h 0m
Altitude 30000
Route SOVIL DCT SITNI DCT BAGSI DCT NANIT NANIT2A
Aircraft A21N/M-SDE2E3FGHIRWXY/LB1

Departure

Time 2026-05-06 21:48
Airport Vienna International Airport (LOWW)

Arrival

Time 2026-05-06 22:48
Airport Innsbruck Airport (LOWI)
Time Latitude Longitude Altitude Speed Heading
2026-05-06 21:47 47.87020 16.92992 11014 ft 310 kts 166°
2026-05-06 21:48 47.84968 16.93983 11017 ft 310 kts 166°
2026-05-06 21:48 47.82961 16.94950 11017 ft 310 kts 166°
2026-05-06 21:48 47.80912 16.95950 11013 ft 310 kts 167°
2026-05-06 21:48 47.78857 16.96981 11017 ft 312 kts 166°
2026-05-06 21:49 47.76789 16.97994 11019 ft 313 kts 166°
2026-05-06 21:49 47.74740 16.98982 11024 ft 313 kts 166°
2026-05-06 21:49 47.72662 16.99981 11019 ft 313 kts 166°
2026-05-06 21:49 47.70582 17.00996 11023 ft 313 kts 166°
2026-05-06 21:50 47.68629 17.02482 11019 ft 321 kts 145°
2026-05-06 21:50 47.67192 17.05029 11030 ft 327 kts 123°
2026-05-06 21:50 47.66522 17.08222 11031 ft 334 kts 99°
2026-05-06 21:50 47.66721 17.11684 11032 ft 341 kts 76°
2026-05-06 21:51 47.67789 17.14835 11029 ft 345 kts 52°
2026-05-06 21:51 47.69571 17.17188 11030 ft 344 kts 29°
2026-05-06 21:51 47.71791 17.18387 11029 ft 339 kts
2026-05-06 21:51 47.74108 17.18271 11032 ft 330 kts 341°
2026-05-06 21:52 47.76167 17.16902 11032 ft 320 kts 321°
2026-05-06 21:52 47.77901 17.14916 11031 ft 318 kts 315°
2026-05-06 21:52 47.79592 17.12793 11024 ft 318 kts 314°
2026-05-06 21:52 47.81284 17.10658 11023 ft 317 kts 314°
2026-05-06 21:53 47.82950 17.08519 11017 ft 315 kts 314°
2026-05-06 21:53 47.84593 17.06367 11018 ft 314 kts 314°
2026-05-06 21:53 47.86232 17.04215 11012 ft 313 kts 314°
2026-05-06 21:53 47.87869 17.02066 11015 ft 313 kts 314°
2026-05-06 21:54 47.89489 16.99944 11022 ft 313 kts 314°
2026-05-06 21:54 47.91129 16.97797 11010 ft 313 kts 314°
2026-05-06 21:54 47.92767 16.95648 11010 ft 313 kts 314°
2026-05-06 21:54 47.94403 16.93494 11013 ft 313 kts 314°
2026-05-06 21:55 47.96035 16.91346 11016 ft 313 kts 314°
2026-05-06 21:55 47.97679 16.89186 11008 ft 313 kts 314°
2026-05-06 21:55 47.99294 16.87063 11005 ft 313 kts 314°
2026-05-06 21:55 48.00928 16.84904 10997 ft 313 kts 314°
2026-05-06 21:56 48.02567 16.82739 10994 ft 313 kts 314°
2026-05-06 21:56 48.04202 16.80580 10998 ft 313 kts 314°
2026-05-06 21:56 48.05835 16.78426 10993 ft 313 kts 314°
2026-05-06 21:56 48.07470 16.76274 11001 ft 313 kts 314°
2026-05-06 21:57 48.09094 16.74129 10993 ft 315 kts 314°
2026-05-06 21:57 48.10745 16.71946 10996 ft 316 kts 314°
2026-05-06 21:57 48.12399 16.69759 11002 ft 317 kts 314°
2026-05-06 21:57 48.14056 16.67565 10999 ft 317 kts 314°
2026-05-06 21:58 48.15694 16.65396 10998 ft 317 kts 314°
2026-05-06 21:58 48.17348 16.63202 10996 ft 317 kts 314°
2026-05-06 21:58 48.19010 16.60996 10989 ft 317 kts 314°
2026-05-06 21:58 48.20663 16.58802 10990 ft 317 kts 314°
2026-05-06 21:59 48.22100 16.56395 10996 ft 312 kts 296°
2026-05-06 21:59 48.22802 16.53367 10990 ft 304 kts 273°
2026-05-06 21:59 48.22749 16.50357 10986 ft 280 kts 260°
2026-05-06 21:59 48.22481 16.47562 11175 ft 264 kts 258°
2026-05-06 22:00 48.22186 16.44826 11579 ft 268 kts 258°
2026-05-06 22:00 48.21879 16.42041 11975 ft 270 kts 258°
2026-05-06 22:00 48.21571 16.39250 12393 ft 271 kts 258°
2026-05-06 22:00 48.21263 16.36452 12809 ft 272 kts 258°
2026-05-06 22:01 48.20959 16.33678 13231 ft 273 kts 258°
2026-05-06 22:01 48.20652 16.30863 13646 ft 273 kts 258°
2026-05-06 22:01 48.20345 16.28037 14025 ft 275 kts 258°
2026-05-06 22:01 48.20040 16.25199 14407 ft 276 kts 258°
2026-05-06 22:02 48.19735 16.22343 14787 ft 278 kts 258°
2026-05-06 22:02 48.19434 16.19506 15181 ft 280 kts 258°
2026-05-06 22:02 48.19132 16.16616 15583 ft 281 kts 258°
2026-05-06 22:02 48.18831 16.13703 15915 ft 283 kts 258°
2026-05-06 22:03 48.18530 16.10779 16002 ft 284 kts 258°
2026-05-06 22:03 48.18326 16.08804 16003 ft 285 kts 258°
2026-05-06 22:03 48.17924 16.04909 16001 ft 286 kts 258°
2026-05-06 22:03 48.17616 16.01959 15992 ft 286 kts 258°
2026-05-06 22:04 48.17294 15.98996 16014 ft 287 kts 258°
2026-05-06 22:04 48.16975 15.96073 16003 ft 287 kts 258°
2026-05-06 22:04 48.16653 15.93121 16003 ft 287 kts 258°
2026-05-06 22:04 48.16440 15.91151 16003 ft 287 kts 258°
2026-05-06 22:05 48.16119 15.88191 16003 ft 287 kts 258°
2026-05-06 22:05 48.15797 15.85233 16010 ft 287 kts 258°
2026-05-06 22:05 48.15370 15.81308 16012 ft 287 kts 258°
2026-05-06 22:05 48.15153 15.79312 16012 ft 287 kts 258°
2026-05-06 22:06 48.14835 15.76393 16006 ft 287 kts 258°
2026-05-06 22:06 48.14512 15.73434 16007 ft 287 kts 258°
2026-05-06 22:06 48.14190 15.70482 16022 ft 287 kts 258°
2026-05-06 22:06 48.13868 15.67525 16017 ft 287 kts 258°
2026-05-06 22:07 48.13545 15.64571 16020 ft 287 kts 258°
2026-05-06 22:07 48.13219 15.61613 16017 ft 288 kts 258°
2026-05-06 22:07 48.12895 15.58648 16019 ft 288 kts 258°
2026-05-06 22:07 48.12575 15.55715 16018 ft 287 kts 258°
2026-05-06 22:08 48.12249 15.52758 16021 ft 287 kts 258°
2026-05-06 22:08 48.11935 15.49812 16041 ft 284 kts 258°
2026-05-06 22:08 48.11642 15.46903 16037 ft 282 kts 258°
2026-05-06 22:08 48.11351 15.43997 16039 ft 283 kts 258°
2026-05-06 22:09 48.11037 15.40941 16057 ft 318 kts 258°
2026-05-06 22:09 48.10671 15.37496 16049 ft 351 kts 258°
2026-05-06 22:09 48.10260 15.33734 16057 ft 378 kts 258°
2026-05-06 22:09 48.09820 15.29782 16050 ft 388 kts 258°
2026-05-06 22:10 48.09374 15.25790 16050 ft 390 kts 258°
2026-05-06 22:10 48.08931 15.21827 16050 ft 391 kts 258°
2026-05-06 22:10 48.08482 15.17809 16049 ft 391 kts 258°
2026-05-06 22:10 48.08032 15.13791 16060 ft 391 kts 258°
2026-05-06 22:11 48.07579 15.09752 16060 ft 392 kts 258°
2026-05-06 22:11 48.07134 15.05769 16077 ft 393 kts 258°
2026-05-06 22:11 48.06677 15.01729 16067 ft 391 kts 258°
2026-05-06 22:11 48.06216 14.97723 16062 ft 390 kts 258°
2026-05-06 22:12 48.05757 14.93758 16072 ft 389 kts 258°
2026-05-06 22:12 48.05296 14.89756 16074 ft 390 kts 258°
2026-05-06 22:12 48.04837 14.85772 16073 ft 389 kts 258°
2026-05-06 22:12 48.04373 14.81772 16073 ft 389 kts 258°
2026-05-06 22:13 48.03911 14.77789 16071 ft 389 kts 258°
2026-05-06 22:13 48.03449 14.73802 16071 ft 389 kts 258°
2026-05-06 22:13 48.02985 14.69821 16003 ft 389 kts 258°
2026-05-06 22:13 48.02525 14.65872 15999 ft 389 kts 258°
2026-05-06 22:14 48.02061 14.61881 15999 ft 389 kts 258°
2026-05-06 22:14 48.01595 14.57902 16019 ft 389 kts 258°
2026-05-06 22:14 48.01132 14.53929 16005 ft 388 kts 258°
2026-05-06 22:14 48.00670 14.49949 16001 ft 388 kts 258°
2026-05-06 22:15 48.00210 14.45967 15998 ft 389 kts 258°
2026-05-06 22:15 47.99754 14.42030 16017 ft 388 kts 258°
2026-05-06 22:15 47.99294 14.38050 16015 ft 388 kts 258°
2026-05-06 22:15 47.98830 14.34073 16011 ft 388 kts 257°
2026-05-06 22:16 47.98210 14.30169 15998 ft 386 kts 250°
2026-05-06 22:16 47.97169 14.26486 16016 ft 384 kts 244°
2026-05-06 22:16 47.96054 14.22912 15997 ft 385 kts 244°
2026-05-06 22:16 47.94921 14.19287 16003 ft 384 kts 244°
2026-05-06 22:17 47.93790 14.15667 16015 ft 385 kts 244°
2026-05-06 22:17 47.92673 14.12095 15904 ft 371 kts 244°
2026-05-06 22:17 47.91611 14.08690 15448 ft 356 kts 244°
2026-05-06 22:17 47.90583 14.05368 14726 ft 350 kts 244°
2026-05-06 22:18 47.89567 14.02123 14218 ft 339 kts 244°
2026-05-06 22:18 47.88580 13.99011 14024 ft 320 kts 244°
2026-05-06 22:18 47.87670 13.96156 14014 ft 299 kts 243°
2026-05-06 22:18 47.86813 13.93442 13988 ft 279 kts 244°
2026-05-06 22:19 47.86000 13.90878 14009 ft 269 kts 243°
2026-05-06 22:19 47.85193 13.88339 14011 ft 272 kts 243°
2026-05-06 22:19 47.84394 13.85804 14014 ft 275 kts 244°
2026-05-06 22:19 47.83581 13.83227 14009 ft 275 kts 243°
2026-05-06 22:20 47.82768 13.80649 14016 ft 275 kts 243°
2026-05-06 22:20 47.81953 13.78065 14019 ft 274 kts 243°
2026-05-06 22:20 47.81154 13.75503 14017 ft 270 kts 243°
2026-05-06 22:20 47.80376 13.73008 13988 ft 268 kts 243°
2026-05-06 22:21 47.79600 13.70489 13732 ft 267 kts 243°
2026-05-06 22:21 47.78821 13.67975 13175 ft 268 kts 243°
2026-05-06 22:21 47.78035 13.65461 12690 ft 266 kts 243°
2026-05-06 22:21 47.77256 13.62965 12240 ft 266 kts 243°
2026-05-06 22:22 47.76488 13.60505 12037 ft 266 kts 243°
2026-05-06 22:22 47.75708 13.57997 12017 ft 267 kts 243°
2026-05-06 22:22 47.74936 13.55483 12019 ft 267 kts 243°
2026-05-06 22:22 47.74161 13.52963 12010 ft 267 kts 243°
2026-05-06 22:23 47.73385 13.50443 12013 ft 267 kts 243°
2026-05-06 22:23 47.72619 13.47958 12011 ft 267 kts 243°
2026-05-06 22:23 47.71842 13.45448 12014 ft 267 kts 243°
2026-05-06 22:23 47.71064 13.42934 12012 ft 267 kts 243°
2026-05-06 22:24 47.70290 13.40415 12015 ft 267 kts 243°
2026-05-06 22:24 47.69516 13.37905 12003 ft 266 kts 244°
2026-05-06 22:24 47.68740 13.35409 12012 ft 266 kts 243°
2026-05-06 22:24 47.67973 13.32935 12007 ft 268 kts 243°
2026-05-06 22:25 47.67194 13.30413 12023 ft 268 kts 244°
2026-05-06 22:25 47.66415 13.27897 12007 ft 268 kts 243°
2026-05-06 22:25 47.65632 13.25378 12021 ft 270 kts 243°
2026-05-06 22:25 47.64842 13.22845 12020 ft 270 kts 243°
2026-05-06 22:26 47.64058 13.20324 12010 ft 270 kts 243°
2026-05-06 22:26 47.63270 13.17792 12012 ft 270 kts 243°
2026-05-06 22:26 47.62492 13.15291 12009 ft 270 kts 243°
2026-05-06 22:26 47.61705 13.12756 12008 ft 270 kts 243°
2026-05-06 22:27 47.60921 13.10216 12013 ft 270 kts 243°
2026-05-06 22:27 47.60131 13.07684 12021 ft 270 kts 243°
2026-05-06 22:27 47.59348 13.05140 12022 ft 272 kts 243°
2026-05-06 22:27 47.58577 13.02609 12020 ft 271 kts 243°
2026-05-06 22:28 47.57801 13.00064 11788 ft 268 kts 243°
2026-05-06 22:28 47.57036 12.97557 11292 ft 267 kts 243°
2026-05-06 22:28 47.56266 12.95035 10769 ft 267 kts 244°
2026-05-06 22:28 47.55515 12.92581 10309 ft 263 kts 243°
2026-05-06 22:29 47.54773 12.90101 10024 ft 255 kts 244°
2026-05-06 22:29 47.54096 12.87781 9998 ft 244 kts 248°
2026-05-06 22:29 47.53703 12.85339 9996 ft 245 kts 258°
2026-05-06 22:29 47.53465 12.82836 10011 ft 245 kts 258°
2026-05-06 22:30 47.53180 12.80375 9882 ft 237 kts 256°
2026-05-06 22:30 47.52899 12.78038 9744 ft 224 kts 256°
2026-05-06 22:30 47.52637 12.75818 9659 ft 220 kts 256°
2026-05-06 22:30 47.52351 12.73589 9541 ft 219 kts 253°
2026-05-06 22:31 47.52010 12.71356 9467 ft 231 kts 253°
2026-05-06 22:31 47.51629 12.68984 9348 ft 240 kts 254°
2026-05-06 22:31 47.51206 12.66556 9247 ft 246 kts 253°
2026-05-06 22:31 47.50771 12.64134 9158 ft 246 kts 253°
2026-05-06 22:32 47.50325 12.61680 9044 ft 246 kts 253°
2026-05-06 22:32 47.49881 12.59238 8951 ft 245 kts 253°
2026-05-06 22:32 47.49458 12.56806 8838 ft 243 kts 253°
2026-05-06 22:32 47.49045 12.54387 8807 ft 242 kts 253°
2026-05-06 22:33 47.48630 12.51966 8798 ft 242 kts 253°
2026-05-06 22:33 47.48224 12.49576 8800 ft 242 kts 253°
2026-05-06 22:33 47.47810 12.47163 8802 ft 242 kts 253°
2026-05-06 22:33 47.47390 12.44745 8797 ft 243 kts 253°
2026-05-06 22:34 47.46970 12.42325 8805 ft 242 kts 253°
2026-05-06 22:34 47.46553 12.39910 8787 ft 242 kts 253°
2026-05-06 22:34 47.46135 12.37485 8793 ft 243 kts 253°
2026-05-06 22:34 47.45612 12.35122 8797 ft 241 kts 244°
2026-05-06 22:35 47.44897 12.32885 8794 ft 240 kts 242°
2026-05-06 22:35 47.44156 12.30701 8794 ft 240 kts 241°
2026-05-06 22:35 47.43401 12.28492 8795 ft 242 kts 241°
2026-05-06 22:35 47.42637 12.26267 8797 ft 241 kts 241°
2026-05-06 22:36 47.41893 12.24086 8798 ft 241 kts 241°
2026-05-06 22:36 47.41136 12.21870 9038 ft 241 kts 241°
2026-05-06 22:36 47.40384 12.19661 9058 ft 240 kts 241°
2026-05-06 22:36 47.39634 12.17459 8989 ft 240 kts 241°
2026-05-06 22:37 47.38887 12.15260 9005 ft 240 kts 241°
2026-05-06 22:37 47.38198 12.13013 8985 ft 241 kts 249°
2026-05-06 22:37 47.37810 12.10591 8992 ft 243 kts 258°
2026-05-06 22:37 47.37557 12.08152 8998 ft 244 kts 259°
2026-05-06 22:38 47.37318 12.05673 8997 ft 244 kts 259°
2026-05-06 22:38 47.37068 12.03177 9004 ft 246 kts 259°
2026-05-06 22:38 47.36815 12.00672 8997 ft 247 kts 259°
2026-05-06 22:38 47.36388 11.98265 8991 ft 243 kts 236°
2026-05-06 22:39 47.35461 11.96197 9002 ft 243 kts 240°
2026-05-06 22:39 47.34849 11.93873 8986 ft 245 kts 253°
2026-05-06 22:39 47.34473 11.91412 9018 ft 245 kts 255°
2026-05-06 22:39 47.34121 11.89002 9016 ft 237 kts 255°
2026-05-06 22:40 47.33774 11.86637 9017 ft 233 kts 255°
2026-05-06 22:40 47.33438 11.84359 9007 ft 223 kts 255°
2026-05-06 22:40 47.33112 11.82177 8993 ft 214 kts 255°
2026-05-06 22:40 47.32799 11.80106 9007 ft 205 kts 255°
2026-05-06 22:41 47.32199 11.76164 8414 ft 187 kts 255°
2026-05-06 22:41 47.31918 11.74319 7852 ft 186 kts 255°
2026-05-06 22:41 47.31629 11.72423 7075 ft 194 kts 254°
2026-05-06 22:42 47.31327 11.70442 6203 ft 201 kts 256°
2026-05-06 22:42 47.31017 11.68486 5850 ft 184 kts 256°
2026-05-06 22:42 47.30621 11.66727 5980 ft 180 kts 247°
2026-05-06 22:42 47.30136 11.65034 5934 ft 179 kts 244°
2026-05-06 22:43 47.29606 11.63419 5809 ft 175 kts 245°
2026-05-06 22:43 47.29162 11.61747 5684 ft 175 kts 251°
2026-05-06 22:43 47.28865 11.60018 5446 ft 174 kts 258°
2026-05-06 22:43 47.28688 11.58281 5176 ft 170 kts 263°
2026-05-06 22:44 47.28528 11.56592 4780 ft 162 kts 261°
2026-05-06 22:44 47.28366 11.54977 4424 ft 157 kts 262°
2026-05-06 22:44 47.28160 11.53402 4094 ft 156 kts 259°
2026-05-06 22:44 47.27976 11.51816 3782 ft 156 kts 261°
2026-05-06 22:45 47.27777 11.50238 3507 ft 157 kts 260°
2026-05-06 22:45 47.27582 11.48671 3364 ft 157 kts 261°
2026-05-06 22:45 47.27398 11.47081 3174 ft 156 kts 261°
2026-05-06 22:45 47.27232 11.45502 2960 ft 154 kts 262°
2026-05-06 22:46 47.27081 11.43984 2804 ft 149 kts 261°
2026-05-06 22:46 47.26886 11.42487 2701 ft 148 kts 261°
2026-05-06 22:46 47.26732 11.40993 2573 ft 146 kts 265°
2026-05-06 22:46 47.26597 11.39514 2446 ft 145 kts 261°
2026-05-06 22:47 47.26412 11.38063 2334 ft 144 kts 264°
2026-05-06 22:47 47.26268 11.36576 2125 ft 145 kts 264°
2026-05-06 22:47 47.26105 11.35213 1930 ft 131 kts 262°
2026-05-06 22:47 47.25986 11.34115 1907 ft 72 kts 264°
2026-05-06 22:48 47.25946 11.33758 1902 ft 11 kts 241°
2026-05-06 22:48 47.25914 11.33723 1912 ft 3 kts 170°
2026-05-06 22:48 47.25879 11.33749 1897 ft 8 kts 140°
2026-05-06 22:48 47.25831 11.33835 1904 ft 14 kts 125°
2026-05-06 22:49 47.25786 11.33937 1898 ft 14 kts 116°
2026-05-06 22:49 47.25774 11.34100 1908 ft 18 kts 84°
2026-05-06 22:49 47.25794 11.34288 1898 ft 16 kts 80°
2026-05-06 22:49 47.25814 11.34459 1907 ft 19 kts 80°
2026-05-06 22:50 47.25829 11.34585 1910 ft 14 kts 80°
2026-05-06 22:50 47.25846 11.34741 1904 ft 12 kts 82°
2026-05-06 22:50 47.25860 11.34888 1910 ft 17 kts 82°
2026-05-06 22:50 47.25864 11.34951 1910 ft 1 kts 97°
2026-05-06 22:51 47.25857 11.34960 1910 ft 3 kts 141°
2026-05-06 22:51 47.25837 11.34976 1898 ft 4 kts 153°
2026-05-06 22:51 47.25828 11.34982 1907 ft 3 kts 156°
2026-05-06 22:51 47.25813 11.34988 1898 ft 0 kts 169°